FW2930 Weather Reports


Display with metric or nautical units.
time (UTC)temp
F
wind
direction
speed
MPH
gust
MPH
rain 1hr
in
rain 24hr
in
rain mn
in
humidity
%
barometer
mb
20260504130800 0 79 10.0 10.0 0.00 0.00 0.00 -999.0
20260504130500 0 77 10.0 10.0 0.00 0.00 0.00 -999.0
20260504130400 0 83 11.0 11.0 0.00 0.00 0.00 -999.0
20260504130301 0 76 12.0 12.0 0.00 0.00 0.00 -999.0
20260504130202 0 77 11.0 11.0 0.00 0.00 0.00 -999.0
20260504120300 0 23 3.0 3.0 0.00 0.00 0.00 -999.0
20260504120201 0 28 0.0 0.0 0.00 0.00 0.00 -999.0
20260504110701 0 15 5.0 5.0 0.00 0.00 0.00 -999.0
20260504110600 0 19 4.0 4.0 0.00 0.00 0.00 -999.0
20260504110500 0 16 3.0 3.0 0.00 0.00 0.00 -999.0
20260504110400 0 22 3.0 3.0 0.00 0.00 0.00 -999.0
20260504100601 0 295 0.0 0.0 0.00 0.00 0.00 -999.0
20260504100501 0 309 1.0 1.0 0.00 0.00 0.00 -999.0
20260504100401 0 308 1.0 1.0 0.00 0.00 0.00 -999.0
20260504100200 0 314 2.0 2.0 0.00 0.00 0.00 -999.0
20260504082000 0 23 2.0 2.0 0.00 0.00 0.00 -999.0
20260504081901 0 24 1.0 1.0 0.00 0.00 0.00 -999.0
20260504081801 0 37 1.0 1.0 0.00 0.00 0.00 -999.0
20260504081700 0 12 2.0 2.0 0.00 0.00 0.00 -999.0
20260504081600 0 13 3.0 3.0 0.00 0.00 0.00 -999.0
20260504081501 0 18 4.0 4.0 0.00 0.00 0.00 -999.0
20260504081201 0 8 3.0 3.0 0.00 0.00 0.00 -999.0
20260504081101 0 343 3.0 3.0 0.00 0.00 0.00 -999.0
20260504081001 0 12 5.0 5.0 0.00 0.00 0.00 -999.0
20260504080901 0 339 4.0 4.0 0.00 0.00 0.00 -999.0
20260504080801 0 11 4.0 4.0 0.00 0.00 0.00 -999.0
20260504080701 0 16 5.0 5.0 0.00 0.00 0.00 -999.0
20260504080601 0 344 4.0 4.0 0.00 0.00 0.00 -999.0
20260504080500 0 350 3.0 3.0 0.00 0.00 0.00 -999.0
20260504080401 0 2 3.0 3.0 0.00 0.00 0.00 -999.0
20260504080300 0 11 4.0 4.0 0.00 0.00 0.00 -999.0
20260504080200 0 13 5.0 5.0 0.00 0.00 0.00 -999.0
20260504070401 0 336 3.0 3.0 0.00 0.00 0.00 -999.0
20260504070301 0 345 4.0 4.0 0.00 0.00 0.00 -999.0
20260504070200 0 355 4.0 4.0 0.00 0.00 0.00 -999.0
20260504060200 0 322 2.0 2.0 0.00 0.00 0.00 -999.0
20260504050700 0 341 3.0 3.0 0.00 0.00 0.00 -999.0
20260504050400 0 322 4.0 4.0 0.00 0.00 0.00 -999.0
20260504050300 0 333 3.0 3.0 0.00 0.00 0.00 -999.0
20260504050200 0 327 4.0 4.0 0.00 0.00 0.00 -999.0
20260504050001 0 314 2.0 2.0 0.00 0.00 0.00 -999.0
20260504045901 0 323 2.0 2.0 0.00 0.00 0.00 -999.0
20260504045800 0 306 2.0 2.0 0.00 0.00 0.00 -999.0
20260504045700 0 307 3.0 3.0 0.00 0.00 0.00 -999.0
20260504045600 0 307 3.0 3.0 0.00 0.00 0.00 -999.0
20260504045500 0 317 2.0 2.0 0.00 0.00 0.00 -999.0
20260504045201 0 307 4.0 4.0 0.00 0.00 0.00 -999.0
20260504045101 0 304 2.0 2.0 0.00 0.00 0.00 -999.0
20260504044900 0 314 4.0 4.0 0.00 0.00 0.00 -999.0
20260504044700 0 347 3.0 3.0 0.00 0.00 0.00 -999.0
20260504044500 0 333 5.0 5.0 0.00 0.00 0.00 -999.0
20260504044301 0 316 4.0 4.0 0.00 0.00 0.00 -999.0
20260504044201 0 310 5.0 5.0 0.00 0.00 0.00 -999.0
20260504044100 0 321 4.0 4.0 0.00 0.00 0.00 -999.0
20260504044001 0 333 3.0 3.0 0.00 0.00 0.00 -999.0
20260504043900 0 323 3.0 3.0 0.00 0.00 0.00 -999.0
20260504043801 0 330 4.0 4.0 0.00 0.00 0.00 -999.0
20260504043701 0 350 3.0 3.0 0.00 0.00 0.00 -999.0
20260504043600 0 328 5.0 5.0 0.00 0.00 0.00 -999.0
20260504043501 0 322 4.0 4.0 0.00 0.00 0.00 -999.0
20260504043401 0 319 5.0 5.0 0.00 0.00 0.00 -999.0
20260504043200 0 299 4.0 4.0 0.00 0.00 0.00 -999.0
20260504043100 0 307 4.0 4.0 0.00 0.00 0.00 -999.0
20260504042900 0 303 4.0 4.0 0.00 0.00 0.00 -999.0
20260504042800 0 306 4.0 4.0 0.00 0.00 0.00 -999.0
20260504042700 0 311 3.0 3.0 0.00 0.00 0.00 -999.0
20260504042600 0 300 4.0 4.0 0.00 0.00 0.00 -999.0
20260504042401 0 308 4.0 4.0 0.00 0.00 0.00 -999.0
20260504042300 0 307 5.0 5.0 0.00 0.00 0.00 -999.0
20260504042200 0 292 5.0 5.0 0.00 0.00 0.00 -999.0
20260504042101 0 295 6.0 6.0 0.00 0.00 0.00 -999.0
20260504042000 0 297 5.0 5.0 0.00 0.00 0.00 -999.0
20260504041901 0 290 4.0 4.0 0.00 0.00 0.00 -999.0
20260504041800 0 300 6.0 6.0 0.00 0.00 0.00 -999.0
20260504041701 0 294 4.0 4.0 0.00 0.00 0.00 -999.0
20260504041600 0 300 4.0 4.0 0.00 0.00 0.00 -999.0
20260504041501 0 302 5.0 5.0 0.00 0.00 0.00 -999.0
20260504041400 0 295 5.0 5.0 0.00 0.00 0.00 -999.0
20260504041200 0 297 3.0 3.0 0.00 0.00 0.00 -999.0
20260504041101 0 298 3.0 3.0 0.00 0.00 0.00 -999.0
20260504041000 0 310 3.0 3.0 0.00 0.00 0.00 -999.0
20260504040800 0 319 3.0 3.0 0.00 0.00 0.00 -999.0
20260504040700 0 319 2.0 2.0 0.00 0.00 0.00 -999.0
20260504040600 0 304 3.0 3.0 0.00 0.00 0.00 -999.0
20260504040501 0 312 3.0 3.0 0.00 0.00 0.00 -999.0
20260504040400 0 317 3.0 3.0 0.00 0.00 0.00 -999.0
20260504040300 0 313 1.0 1.0 0.00 0.00 0.00 -999.0
20260504040200 0 319 3.0 3.0 0.00 0.00 0.00 -999.0
20260504040100 0 306 3.0 3.0 0.00 0.00 0.00 -999.0
20260504035801 0 306 4.0 4.0 0.00 0.00 0.00 -999.0
20260504035600 0 313 4.0 4.0 0.00 0.00 0.00 -999.0
20260504035501 0 307 4.0 4.0 0.00 0.00 0.00 -999.0
20260504035401 0 329 4.0 4.0 0.00 0.00 0.00 -999.0
20260504035301 0 316 4.0 4.0 0.00 0.00 0.00 -999.0
20260504035200 0 302 4.0 4.0 0.00 0.00 0.00 -999.0
20260504035101 0 307 4.0 4.0 0.00 0.00 0.00 -999.0
20260504035000 0 307 4.0 4.0 0.00 0.00 0.00 -999.0
20260504034700 0 298 5.0 5.0 0.00 0.00 0.00 -999.0
20260504034601 0 301 5.0 5.0 0.00 0.00 0.00 -999.0
20260504034500 0 302 7.0 7.0 0.00 0.00 0.00 -999.0
20260504034400 0 300 6.0 6.0 0.00 0.00 0.00 -999.0
20260504034301 0 293 6.0 6.0 0.00 0.00 0.00 -999.0
20260504034200 0 292 7.0 7.0 0.00 0.00 0.00 -999.0
20260504034100 0 297 6.0 6.0 0.00 0.00 0.00 -999.0
20260504034001 0 304 5.0 5.0 0.00 0.00 0.00 -999.0
20260504033900 0 300 6.0 6.0 0.00 0.00 0.00 -999.0
20260504033800 0 305 6.0 6.0 0.00 0.00 0.00 -999.0
20260504033501 0 293 7.0 7.0 0.00 0.00 0.00 -999.0
20260504033400 0 302 8.0 8.0 0.00 0.00 0.00 -999.0
20260504033301 0 298 7.0 7.0 0.00 0.00 0.00 -999.0
20260504033201 0 293 8.0 8.0 0.00 0.00 0.00 -999.0
20260504033001 0 293 8.0 8.0 0.00 0.00 0.00 -999.0
20260504032900 0 295 8.0 8.0 0.00 0.00 0.00 -999.0
20260504032700 0 292 7.0 7.0 0.00 0.00 0.00 -999.0
20260504032601 0 288 8.0 8.0 0.00 0.00 0.00 -999.0
20260504032501 0 283 8.0 8.0 0.00 0.00 0.00 -999.0
20260504032401 0 286 8.0 8.0 0.00 0.00 0.00 -999.0
20260504032300 0 290 8.0 8.0 0.00 0.00 0.00 -999.0
20260504032201 0 283 8.0 8.0 0.00 0.00 0.00 -999.0
20260504032101 0 283 8.0 8.0 0.00 0.00 0.00 -999.0
20260504032001 0 278 8.0 8.0 0.00 0.00 0.00 -999.0
20260504031901 0 284 9.0 9.0 0.00 0.00 0.00 -999.0
20260504031801 0 294 9.0 9.0 0.00 0.00 0.00 -999.0
20260504031701 0 286 8.0 8.0 0.00 0.00 0.00 -999.0
20260504031600 0 284 8.0 8.0 0.00 0.00 0.00 -999.0
20260504031500 0 281 10.0 10.0 0.00 0.00 0.00 -999.0
20260504031401 0 287 9.0 9.0 0.00 0.00 0.00 -999.0
20260504031300 0 288 8.0 8.0 0.00 0.00 0.00 -999.0
20260504031201 0 285 9.0 9.0 0.00 0.00 0.00 -999.0
20260504030900 0 286 9.0 9.0 0.00 0.00 0.00 -999.0
20260504030801 0 280 9.0 9.0 0.00 0.00 0.00 -999.0
20260504030701 0 283 9.0 9.0 0.00 0.00 0.00 -999.0
20260504030601 0 271 8.0 8.0 0.00 0.00 0.00 -999.0
20260504030501 0 282 9.0 9.0 0.00 0.00 0.00 -999.0
20260504030400 0 284 8.0 8.0 0.00 0.00 0.00 -999.0
20260504030301 0 284 8.0 8.0 0.00 0.00 0.00 -999.0
20260504030100 0 283 9.0 9.0 0.00 0.00 0.00 -999.0
20260504030001 0 285 8.0 8.0 0.00 0.00 0.00 -999.0
20260504025701 0 283 9.0 9.0 0.00 0.00 0.00 -999.0
20260504025601 0 282 10.0 10.0 0.00 0.00 0.00 -999.0
20260504025502 0 288 8.0 8.0 0.00 0.00 0.00 -999.0
20260504025401 0 270 9.0 9.0 0.00 0.00 0.00 -999.0
20260504025301 0 274 9.0 9.0 0.00 0.00 0.00 -999.0
20260504025201 0 286 9.0 9.0 0.00 0.00 0.00 -999.0
20260504025100 0 278 8.0 8.0 0.00 0.00 0.00 -999.0
20260504025000 0 271 9.0 9.0 0.00 0.00 0.00 -999.0
20260504024900 0 284 10.0 10.0 0.00 0.00 0.00 -999.0
20260504024800 0 287 11.0 11.0 0.00 0.00 0.00 -999.0
20260504024700 0 285 9.0 9.0 0.00 0.00 0.00 -999.0
20260504024600 0 290 9.0 9.0 0.00 0.00 0.00 -999.0
20260504024500 0 281 7.0 7.0 0.00 0.00 0.00 -999.0
20260504024401 0 272 9.0 9.0 0.00 0.00 0.00 -999.0
20260504024201 0 282 9.0 9.0 0.00 0.00 0.00 -999.0
20260504024101 0 278 9.0 9.0 0.00 0.00 0.00 -999.0
20260504024002 0 281 9.0 9.0 0.00 0.00 0.00 -999.0
20260504023801 0 272 8.0 8.0 0.00 0.00 0.00 -999.0
20260504023701 0 285 8.0 8.0 0.00 0.00 0.00 -999.0
20260504023501 0 281 6.0 6.0 0.00 0.00 0.00 -999.0
20260504023400 0 278 7.0 7.0 0.00 0.00 0.00 -999.0
20260504023300 0 274 7.0 7.0 0.00 0.00 0.00 -999.0
20260504023201 0 275 6.0 6.0 0.00 0.00 0.00 -999.0
20260504023100 0 275 5.0 5.0 0.00 0.00 0.00 -999.0
20260504023000 0 264 6.0 6.0 0.00 0.00 0.00 -999.0
20260504022800 0 266 6.0 6.0 0.00 0.00 0.00 -999.0
20260504022700 0 265 6.0 6.0 0.00 0.00 0.00 -999.0
20260504022601 0 269 5.0 5.0 0.00 0.00 0.00 -999.0
20260504022501 0 272 5.0 5.0 0.00 0.00 0.00 -999.0
20260504022401 0 281 5.0 5.0 0.00 0.00 0.00 -999.0
20260504022300 0 278 4.0 4.0 0.00 0.00 0.00 -999.0
20260504022200 0 283 5.0 5.0 0.00 0.00 0.00 -999.0
20260504022101 0 285 4.0 4.0 0.00 0.00 0.00 -999.0
20260504022000 0 281 4.0 4.0 0.00 0.00 0.00 -999.0
20260504021701 0 284 4.0 4.0 0.00 0.00 0.00 -999.0
20260504021601 0 280 5.0 5.0 0.00 0.00 0.00 -999.0
20260504021501 0 278 4.0 4.0 0.00 0.00 0.00 -999.0
20260504021400 0 284 4.0 4.0 0.00 0.00 0.00 -999.0
20260504021001 0 278 5.0 5.0 0.00 0.00 0.00 -999.0
20260504020900 0 290 6.0 6.0 0.00 0.00 0.00 -999.0
20260504020700 0 281 6.0 6.0 0.00 0.00 0.00 -999.0
20260504020600 0 279 7.0 7.0 0.00 0.00 0.00 -999.0
20260504020500 0 266 7.0 7.0 0.00 0.00 0.00 -999.0
20260504020401 0 267 8.0 8.0 0.00 0.00 0.00 -999.0
20260504020101 0 269 6.0 6.0 0.00 0.00 0.00 -999.0
20260504020001 0 267 8.0 8.0 0.00 0.00 0.00 -999.0
20260504015901 0 275 8.0 8.0 0.00 0.00 0.00 -999.0
20260504015700 0 240 5.0 5.0 0.00 0.00 0.00 -999.0
20260504015600 0 249 4.0 4.0 0.00 0.00 0.00 -999.0
20260504015500 0 252 5.0 5.0 0.00 0.00 0.00 -999.0
20260504015300 0 271 5.0 5.0 0.00 0.00 0.00 -999.0
20260504015201 0 280 4.0 4.0 0.00 0.00 0.00 -999.0
20260504015100 0 276 6.0 6.0 0.00 0.00 0.00 -999.0
20260504015000 0 271 5.0 5.0 0.00 0.00 0.00 -999.0
20260504014900 0 272 5.0 5.0 0.00 0.00 0.00 -999.0
20260504014700 0 254 4.0 4.0 0.00 0.00 0.00 -999.0
20260504014500 0 254 5.0 5.0 0.00 0.00 0.00 -999.0
20260504014400 0 257 5.0 5.0 0.00 0.00 0.00 -999.0
20260504014300 0 257 6.0 6.0 0.00 0.00 0.00 -999.0
20260504014200 0 267 6.0 6.0 0.00 0.00 0.00 -999.0
20260504014100 0 259 5.0 5.0 0.00 0.00 0.00 -999.0
20260504013900 0 264 5.0 5.0 0.00 0.00 0.00 -999.0
20260504013800 0 257 6.0 6.0 0.00 0.00 0.00 -999.0
20260504013700 0 250 6.0 6.0 0.00 0.00 0.00 -999.0
20260504013601 0 245 6.0 6.0 0.00 0.00 0.00 -999.0
20260504013500 0 252 6.0 6.0 0.00 0.00 0.00 -999.0
20260504013400 0 260 5.0 5.0 0.00 0.00 0.00 -999.0
20260504013001 0 247 7.0 7.0 0.00 0.00 0.00 -999.0
20260504012800 0 252 7.0 7.0 0.00 0.00 0.00 -999.0
20260504012700 0 251 5.0 5.0 0.00 0.00 0.00 -999.0
20260504012600 0 261 7.0 7.0 0.00 0.00 0.00 -999.0
20260504012501 0 257 7.0 7.0 0.00 0.00 0.00 -999.0
20260504012400 0 259 7.0 7.0 0.00 0.00 0.00 -999.0
20260504012201 0 245 6.0 6.0 0.00 0.00 0.00 -999.0
20260504012000 0 245 8.0 8.0 0.00 0.00 0.00 -999.0
20260504011900 0 254 6.0 6.0 0.00 0.00 0.00 -999.0
20260504011800 0 255 5.0 5.0 0.00 0.00 0.00 -999.0
20260504011600 0 258 6.0 6.0 0.00 0.00 0.00 -999.0
20260504011500 0 243 6.0 6.0 0.00 0.00 0.00 -999.0
20260504011400 0 247 8.0 8.0 0.00 0.00 0.00 -999.0
20260504011300 0 238 6.0 6.0 0.00 0.00 0.00 -999.0
20260504011200 0 242 7.0 7.0 0.00 0.00 0.00 -999.0
20260504011100 0 246 9.0 9.0 0.00 0.00 0.00 -999.0
20260504011000 0 262 8.0 8.0 0.00 0.00 0.00 -999.0
20260504010900 0 251 7.0 7.0 0.00 0.00 0.00 -999.0
20260504010800 0 245 6.0 6.0 0.00 0.00 0.00 -999.0
20260504010500 0 244 5.0 5.0 0.00 0.00 0.00 -999.0
20260504010400 0 252 7.0 7.0 0.00 0.00 0.00 -999.0
20260504010200 0 260 6.0 6.0 0.00 0.00 0.00 -999.0
20260504010100 0 244 8.0 8.0 0.00 0.00 0.00 -999.0
20260504010000 0 252 7.0 7.0 0.00 0.00 0.00 -999.0
20260504005900 0 237 7.0 7.0 0.00 0.00 0.00 -999.0
20260504005800 0 252 8.0 8.0 0.00 0.00 0.00 -999.0
20260504005700 0 257 6.0 6.0 0.00 0.00 0.00 -999.0
20260504005500 0 256 6.0 6.0 0.00 0.00 0.00 -999.0
20260504005200 0 241 7.0 7.0 0.00 0.00 0.00 -999.0
20260504005100 0 264 5.0 5.0 0.00 0.00 0.00 -999.0
20260504005000 0 253 6.0 6.0 0.00 0.00 0.00 -999.0
20260504004900 0 252 5.0 5.0 0.00 0.00 0.00 -999.0
20260504004800 0 237 4.0 4.0 0.00 0.00 0.00 -999.0
20260504004700 0 239 4.0 4.0 0.00 0.00 0.00 -999.0
20260504004601 0 254 7.0 7.0 0.00 0.00 0.00 -999.0
20260504004500 0 247 6.0 6.0 0.00 0.00 0.00 -999.0
20260504004400 0 248 7.0 7.0 0.00 0.00 0.00 -999.0
20260504004300 0 249 8.0 8.0 0.00 0.00 0.00 -999.0
20260504004100 0 245 8.0 8.0 0.00 0.00 0.00 -999.0
20260504004000 0 269 8.0 8.0 0.00 0.00 0.00 -999.0
20260504003900 0 250 8.0 8.0 0.00 0.00 0.00 -999.0
20260504003601 0 250 8.0 8.0 0.00 0.00 0.00 -999.0
20260504003400 0 250 7.0 7.0 0.00 0.00 0.00 -999.0
20260504003300 0 250 9.0 9.0 0.00 0.00 0.00 -999.0
20260504003200 0 254 10.0 10.0 0.00 0.00 0.00 -999.0
20260504003100 0 256 8.0 8.0 0.00 0.00 0.00 -999.0
20260504003000 0 254 9.0 9.0 0.00 0.00 0.00 -999.0
20260504002900 0 251 11.0 11.0 0.00 0.00 0.00 -999.0
20260504002800 0 245 8.0 8.0 0.00 0.00 0.00 -999.0
20260504002700 0 253 12.0 12.0 0.00 0.00 0.00 -999.0
20260504002601 0 233 8.0 8.0 0.00 0.00 0.00 -999.0
20260504002501 0 255 9.0 9.0 0.00 0.00 0.00 -999.0
20260504002401 0 250 9.0 9.0 0.00 0.00 0.00 -999.0
20260504002300 0 255 9.0 9.0 0.00 0.00 0.00 -999.0
20260504002101 0 240 9.0 9.0 0.00 0.00 0.00 -999.0
20260504001900 0 259 11.0 11.0 0.00 0.00 0.00 -999.0
20260504001800 0 265 9.0 9.0 0.00 0.00 0.00 -999.0
20260504001701 0 248 11.0 11.0 0.00 0.00 0.00 -999.0
20260504001600 0 257 10.0 10.0 0.00 0.00 0.00 -999.0
20260504001500 0 261 9.0 9.0 0.00 0.00 0.00 -999.0
20260504001300 0 259 12.0 12.0 0.00 0.00 0.00 -999.0
20260504001200 0 257 13.0 13.0 0.00 0.00 0.00 -999.0
20260504001100 0 256 13.0 13.0 0.00 0.00 0.00 -999.0
20260504001001 0 247 13.0 13.0 0.00 0.00 0.00 -999.0
20260504000901 0 236 11.0 11.0 0.00 0.00 0.00 -999.0
20260504000800 0 249 11.0 11.0 0.00 0.00 0.00 -999.0
20260504000700 0 236 9.0 9.0 0.00 0.00 0.00 -999.0
20260504000600 0 234 7.0 7.0 0.00 0.00 0.00 -999.0
20260504000500 0 245 6.0 6.0 0.00 0.00 0.00 -999.0
20260504000401 0 224 8.0 8.0 0.00 0.00 0.00 -999.0
20260504000300 0 239 8.0 8.0 0.00 0.00 0.00 -999.0
20260504000200 0 238 7.0 7.0 0.00 0.00 0.00 -999.0
20260504000100 0 224 4.0 4.0 0.00 0.00 0.00 -999.0
20260503235801 0 225 10.0 10.0 0.00 0.00 0.00 -999.0
20260503235601 0 241 9.0 9.0 0.00 0.00 0.00 -999.0
20260503235501 0 231 9.0 9.0 0.00 0.00 0.00 -999.0
20260503235401 0 223 6.0 6.0 0.00 0.00 0.00 -999.0
20260503235301 0 237 8.0 8.0 0.00 0.00 0.00 -999.0
20260503235200 0 229 8.0 8.0 0.00 0.00 0.00 -999.0
20260503235101 0 236 8.0 8.0 0.00 0.00 0.00 -999.0
20260503235001 0 203 4.0 4.0 0.00 0.00 0.00 -999.0
20260503234901 0 217 8.0 8.0 0.00 0.00 0.00 -999.0
20260503234801 0 230 8.0 8.0 0.00 0.00 0.00 -999.0
20260503234701 0 223 8.0 8.0 0.00 0.00 0.00 -999.0
20260503234500 0 233 7.0 7.0 0.00 0.00 0.00 -999.0
20260503234401 0 218 8.0 8.0 0.00 0.00 0.00 -999.0
20260503234200 0 239 7.0 7.0 0.00 0.00 0.00 -999.0
20260503234001 0 235 4.0 4.0 0.00 0.00 0.00 -999.0
20260503233900 0 205 6.0 6.0 0.00 0.00 0.00 -999.0
20260503233801 0 235 8.0 8.0 0.00 0.00 0.00 -999.0
20260503233701 0 226 6.0 6.0 0.00 0.00 0.00 -999.0
20260503233601 0 229 8.0 8.0 0.00 0.00 0.00 -999.0
20260503233501 0 229 6.0 6.0 0.00 0.00 0.00 -999.0
20260503233402 0 228 8.0 8.0 0.00 0.00 0.00 -999.0
20260503233301 0 244 9.0 9.0 0.00 0.00 0.00 -999.0
20260503233200 0 237 9.0 9.0 0.00 0.00 0.00 -999.0
20260503232900 0 236 8.0 8.0 0.00 0.00 0.00 -999.0
20260503232700 0 249 6.0 6.0 0.00 0.00 0.00 -999.0
20260503232601 0 240 3.0 3.0 0.00 0.00 0.00 -999.0
20260503232500 0 243 4.0 4.0 0.00 0.00 0.00 -999.0
20260503232400 0 224 5.0 5.0 0.00 0.00 0.00 -999.0
20260503232300 0 223 7.0 7.0 0.00 0.00 0.00 -999.0
20260503232200 0 196 5.0 5.0 0.00 0.00 0.00 -999.0
20260503232101 0 200 7.0 7.0 0.00 0.00 0.00 -999.0
20260503232000 0 217 6.0 6.0 0.00 0.00 0.00 -999.0
20260503231900 0 211 9.0 9.0 0.00 0.00 0.00 -999.0
20260503231701 0 235 9.0 9.0 0.00 0.00 0.00 -999.0
20260503231601 0 228 11.0 11.0 0.00 0.00 0.00 -999.0
20260503231501 0 212 6.0 6.0 0.00 0.00 0.00 -999.0
20260503231400 0 187 9.0 9.0 0.00 0.00 0.00 -999.0
20260503231300 0 219 7.0 7.0 0.00 0.00 0.00 -999.0
20260503231200 0 223 5.0 5.0 0.00 0.00 0.00 -999.0
20260503231000 0 212 5.0 5.0 0.00 0.00 0.00 -999.0
20260503230900 0 192 8.0 8.0 0.00 0.00 0.00 -999.0
20260503230801 0 233 9.0 9.0 0.00 0.00 0.00 -999.0
20260503230700 0 229 10.0 10.0 0.00 0.00 0.00 -999.0
20260503230600 0 238 7.0 7.0 0.00 0.00 0.00 -999.0
20260503230501 0 225 3.0 3.0 0.00 0.00 0.00 -999.0
20260503230401 0 189 4.0 4.0 0.00 0.00 0.00 -999.0
20260503230201 0 212 9.0 9.0 0.00 0.00 0.00 -999.0
20260503230100 0 211 7.0 7.0 0.00 0.00 0.00 -999.0
20260503225901 0 222 9.0 9.0 0.00 0.00 0.00 -999.0
20260503225801 0 236 6.0 6.0 0.00 0.00 0.00 -999.0
20260503225601 0 232 7.0 7.0 0.00 0.00 0.00 -999.0
20260503225500 0 244 11.0 11.0 0.00 0.00 0.00 -999.0
20260503225300 0 225 8.0 8.0 0.00 0.00 0.00 -999.0
20260503225201 0 233 8.0 8.0 0.00 0.00 0.00 -999.0
20260503225101 0 203 8.0 8.0 0.00 0.00 0.00 -999.0
20260503224301 0 235 11.0 11.0 0.00 0.00 0.00 -999.0
20260503224201 0 224 12.0 12.0 0.00 0.00 0.00 -999.0
20260503224100 0 221 7.0 7.0 0.00 0.00 0.00 -999.0
20260503224000 0 225 10.0 10.0 0.00 0.00 0.00 -999.0
20260503223901 0 219 8.0 8.0 0.00 0.00 0.00 -999.0
20260503223701 0 224 6.0 6.0 0.00 0.00 0.00 -999.0
20260503223301 0 178 8.0 8.0 0.00 0.00 0.00 -999.0
20260503223201 0 205 7.0 7.0 0.00 0.00 0.00 -999.0
20260503223101 0 157 6.0 6.0 0.00 0.00 0.00 -999.0
20260503223001 0 238 4.0 4.0 0.00 0.00 0.00 -999.0
20260503222900 0 203 4.0 4.0 0.00 0.00 0.00 -999.0
20260503222801 0 221 9.0 9.0 0.00 0.00 0.00 -999.0
20260503222701 0 215 9.0 9.0 0.00 0.00 0.00 -999.0
20260503222500 0 197 8.0 8.0 0.00 0.00 0.00 -999.0
20260503222400 0 216 8.0 8.0 0.00 0.00 0.00 -999.0
20260503222300 0 224 9.0 9.0 0.00 0.00 0.00 -999.0
20260503222200 0 205 9.0 9.0 0.00 0.00 0.00 -999.0
20260503222101 0 228 6.0 6.0 0.00 0.00 0.00 -999.0
20260503221901 0 212 7.0 7.0 0.00 0.00 0.00 -999.0
20260503221800 0 223 10.0 10.0 0.00 0.00 0.00 -999.0
20260503221701 0 236 7.0 7.0 0.00 0.00 0.00 -999.0
20260503221601 0 219 6.0 6.0 0.00 0.00 0.00 -999.0
20260503221500 0 231 7.0 7.0 0.00 0.00 0.00 -999.0
20260503221300 0 204 6.0 6.0 0.00 0.00 0.00 -999.0
20260503221200 0 204 7.0 7.0 0.00 0.00 0.00 -999.0
20260503221100 0 214 7.0 7.0 0.00 0.00 0.00 -999.0
20260503220900 0 217 5.0 5.0 0.00 0.00 0.00 -999.0
20260503220801 0 196 3.0 3.0 0.00 0.00 0.00 -999.0
20260503220701 0 172 10.0 10.0 0.00 0.00 0.00 -999.0
20260503220601 0 160 7.0 7.0 0.00 0.00 0.00 -999.0
20260503220500 0 173 7.0 7.0 0.00 0.00 0.00 -999.0
20260503220300 0 231 8.0 8.0 0.00 0.00 0.00 -999.0
20260503220101 0 240 6.0 6.0 0.00 0.00 0.00 -999.0
20260503220001 0 210 8.0 8.0 0.00 0.00 0.00 -999.0
20260503215900 0 230 11.0 11.0 0.00 0.00 0.00 -999.0
20260503215600 0 205 5.0 5.0 0.00 0.00 0.00 -999.0
20260503215500 0 155 7.0 7.0 0.00 0.00 0.00 -999.0
20260503215300 0 148 9.0 9.0 0.00 0.00 0.00 -999.0
20260503215100 0 205 5.0 5.0 0.00 0.00 0.00 -999.0
20260503215001 0 230 6.0 6.0 0.00 0.00 0.00 -999.0
20260503214900 0 209 4.0 4.0 0.00 0.00 0.00 -999.0
20260503214700 0 210 5.0 5.0 0.00 0.00 0.00 -999.0
20260503214500 0 226 9.0 9.0 0.00 0.00 0.00 -999.0
20260503214400 0 239 9.0 9.0 0.00 0.00 0.00 -999.0
20260503214300 0 230 9.0 9.0 0.00 0.00 0.00 -999.0
20260503214201 0 233 9.0 9.0 0.00 0.00 0.00 -999.0
20260503214101 0 211 5.0 5.0 0.00 0.00 0.00 -999.0
20260503214001 0 210 11.0 11.0 0.00 0.00 0.00 -999.0
20260503213901 0 217 9.0 9.0 0.00 0.00 0.00 -999.0
20260503213801 0 224 8.0 8.0 0.00 0.00 0.00 -999.0
20260503213700 0 217 7.0 7.0 0.00 0.00 0.00 -999.0
20260503213601 0 229 6.0 6.0 0.00 0.00 0.00 -999.0
20260503213501 0 234 9.0 9.0 0.00 0.00 0.00 -999.0
20260503213400 0 235 12.0 12.0 0.00 0.00 0.00 -999.0
20260503213300 0 226 9.0 9.0 0.00 0.00 0.00 -999.0
20260503213101 0 216 11.0 11.0 0.00 0.00 0.00 -999.0
20260503213000 0 244 6.0 6.0 0.00 0.00 0.00 -999.0
20260503212900 0 228 12.0 12.0 0.00 0.00 0.00 -999.0
20260503212701 0 219 10.0 10.0 0.00 0.00 0.00 -999.0
20260503212601 0 225 13.0 13.0 0.00 0.00 0.00 -999.0
20260503212500 0 231 11.0 11.0 0.00 0.00 0.00 -999.0
20260503212400 0 221 11.0 11.0 0.00 0.00 0.00 -999.0
20260503212300 0 210 10.0 10.0 0.00 0.00 0.00 -999.0
20260503212200 0 226 11.0 11.0 0.00 0.00 0.00 -999.0
20260503212000 0 221 12.0 12.0 0.00 0.00 0.00 -999.0
20260503211900 0 236 11.0 11.0 0.00 0.00 0.00 -999.0
20260503211800 0 226 5.0 5.0 0.00 0.00 0.00 -999.0
20260503211701 0 231 10.0 10.0 0.00 0.00 0.00 -999.0
20260503211600 0 216 10.0 10.0 0.00 0.00 0.00 -999.0
20260503211400 0 225 4.0 4.0 0.00 0.00 0.00 -999.0
20260503211200 0 227 6.0 6.0 0.00 0.00 0.00 -999.0
20260503211100 0 219 6.0 6.0 0.00 0.00 0.00 -999.0
20260503211000 0 171 7.0 7.0 0.00 0.00 0.00 -999.0
20260503210900 0 202 9.0 9.0 0.00 0.00 0.00 -999.0
20260503210800 0 225 6.0 6.0 0.00 0.00 0.00 -999.0
20260503210700 0 240 6.0 6.0 0.00 0.00 0.00 -999.0
20260503210600 0 222 7.0 7.0 0.00 0.00 0.00 -999.0
20260503210500 0 212 10.0 10.0 0.00 0.00 0.00 -999.0
20260503210400 0 241 8.0 8.0 0.00 0.00 0.00 -999.0
20260503210300 0 210 8.0 8.0 0.00 0.00 0.00 -999.0
20260503210200 0 230 10.0 10.0 0.00 0.00 0.00 -999.0
20260503210100 0 228 8.0 8.0 0.00 0.00 0.00 -999.0
20260503210000 0 235 8.0 8.0 0.00 0.00 0.00 -999.0
20260503205900 0 207 10.0 10.0 0.00 0.00 0.00 -999.0
20260503205701 0 216 11.0 11.0 0.00 0.00 0.00 -999.0
20260503205400 0 226 4.0 4.0 0.00 0.00 0.00 -999.0
20260503205300 0 193 5.0 5.0 0.00 0.00 0.00 -999.0
20260503205200 0 226 11.0 11.0 0.00 0.00 0.00 -999.0
20260503205100 0 184 5.0 5.0 0.00 0.00 0.00 -999.0
20260503205001 0 200 5.0 5.0 0.00 0.00 0.00 -999.0
20260503204900 0 191 9.0 9.0 0.00 0.00 0.00 -999.0
20260503204800 0 191 5.0 5.0 0.00 0.00 0.00 -999.0
20260503204700 0 195 9.0 9.0 0.00 0.00 0.00 -999.0
20260503204601 0 200 5.0 5.0 0.00 0.00 0.00 -999.0
20260503204501 0 200 5.0 5.0 0.00 0.00 0.00 -999.0
20260503204400 0 215 5.0 5.0 0.00 0.00 0.00 -999.0
20260503204301 0 237 3.0 3.0 0.00 0.00 0.00 -999.0
20260503204201 0 230 4.0 4.0 0.00 0.00 0.00 -999.0
20260503204100 0 194 4.0 4.0 0.00 0.00 0.00 -999.0
20260503204000 0 184 5.0 5.0 0.00 0.00 0.00 -999.0
20260503203800 0 197 6.0 6.0 0.00 0.00 0.00 -999.0
20260503203701 0 199 5.0 5.0 0.00 0.00 0.00 -999.0
20260503203601 0 200 6.0 6.0 0.00 0.00 0.00 -999.0
20260503203501 0 172 4.0 4.0 0.00 0.00 0.00 -999.0
20260503203400 0 193 6.0 6.0 0.00 0.00 0.00 -999.0
20260503203200 0 202 6.0 6.0 0.00 0.00 0.00 -999.0
20260503203001 0 193 6.0 6.0 0.00 0.00 0.00 -999.0
20260503202900 0 200 8.0 8.0 0.00 0.00 0.00 -999.0
20260503202801 0 236 10.0 10.0 0.00 0.00 0.00 -999.0
20260503202700 0 229 10.0 10.0 0.00 0.00 0.00 -999.0
20260503202600 0 231 9.0 9.0 0.00 0.00 0.00 -999.0
20260503202501 0 229 10.0 10.0 0.00 0.00 0.00 -999.0
20260503202400 0 259 6.0 6.0 0.00 0.00 0.00 -999.0
20260503202300 0 241 11.0 11.0 0.00 0.00 0.00 -999.0
20260503202200 0 252 7.0 7.0 0.00 0.00 0.00 -999.0
20260503202100 0 207 4.0 4.0 0.00 0.00 0.00 -999.0
20260503202000 0 235 2.0 2.0 0.00 0.00 0.00 -999.0
20260503201900 0 216 5.0 5.0 0.00 0.00 0.00 -999.0
20260503201700 0 195 7.0 7.0 0.00 0.00 0.00 -999.0
20260503201601 0 214 9.0 9.0 0.00 0.00 0.00 -999.0
20260503201500 0 196 10.0 10.0 0.00 0.00 0.00 -999.0
20260503201400 0 221 10.0 10.0 0.00 0.00 0.00 -999.0
20260503201300 0 239 7.0 7.0 0.00 0.00 0.00 -999.0
20260503201100 0 238 14.0 14.0 0.00 0.00 0.00 -999.0
20260503201000 0 233 13.0 13.0 0.00 0.00 0.00 -999.0
20260503200900 0 259 11.0 11.0 0.00 0.00 0.00 -999.0
20260503200800 0 262 4.0 4.0 0.00 0.00 0.00 -999.0
20260503200401 0 227 9.0 9.0 0.00 0.00 0.00 -999.0
20260503200200 0 231 11.0 11.0 0.00 0.00 0.00 -999.0
20260503200100 0 243 12.0 12.0 0.00 0.00 0.00 -999.0
20260503200000 0 211 7.0 7.0 0.00 0.00 0.00 -999.0
20260503195900 0 234 7.0 7.0 0.00 0.00 0.00 -999.0
20260503195800 0 238 7.0 7.0 0.00 0.00 0.00 -999.0
20260503195700 0 229 7.0 7.0 0.00 0.00 0.00 -999.0
20260503195600 0 226 10.0 10.0 0.00 0.00 0.00 -999.0
20260503195500 0 240 12.0 12.0 0.00 0.00 0.00 -999.0
20260503195400 0 245 7.0 7.0 0.00 0.00 0.00 -999.0
20260503195300 0 226 6.0 6.0 0.00 0.00 0.00 -999.0
20260503195201 0 231 4.0 4.0 0.00 0.00 0.00 -999.0
20260503195100 0 234 5.0 5.0 0.00 0.00 0.00 -999.0
20260503195000 0 236 5.0 5.0 0.00 0.00 0.00 -999.0
20260503194900 0 247 9.0 9.0 0.00 0.00 0.00 -999.0
20260503194701 0 237 7.0 7.0 0.00 0.00 0.00 -999.0
20260503194601 0 259 6.0 6.0 0.00 0.00 0.00 -999.0
20260503194500 0 231 11.0 11.0 0.00 0.00 0.00 -999.0
20260503194400 0 227 4.0 4.0 0.00 0.00 0.00 -999.0
20260503194300 0 226 6.0 6.0 0.00 0.00 0.00 -999.0
20260503194201 0 266 4.0 4.0 0.00 0.00 0.00 -999.0
20260503194101 0 245 3.0 3.0 0.00 0.00 0.00 -999.0
20260503194000 0 304 1.0 1.0 0.00 0.00 0.00 -999.0
20260503193901 0 338 1.0 1.0 0.00 0.00 0.00 -999.0
20260503193800 0 272 3.0 3.0 0.00 0.00 0.00 -999.0
20260503193700 0 276 5.0 5.0 0.00 0.00 0.00 -999.0
20260503193601 0 269 9.0 9.0 0.00 0.00 0.00 -999.0
20260503193500 0 306 13.0 13.0 0.00 0.00 0.00 -999.0
20260503193401 0 326 11.0 11.0 0.00 0.00 0.00 -999.0
20260503193300 0 349 7.0 7.0 0.00 0.00 0.00 -999.0
20260503193200 0 290 4.0 4.0 0.00 0.00 0.00 -999.0
20260503193101 0 87 1.0 1.0 0.00 0.00 0.00 -999.0
20260503193001 0 41 2.0 2.0 0.00 0.00 0.00 -999.0
20260503192800 0 10 7.0 7.0 0.00 0.00 0.00 -999.0
20260503192700 0 15 5.0 5.0 0.00 0.00 0.00 -999.0
20260503192500 0 356 5.0 5.0 0.00 0.00 0.00 -999.0
20260503192401 0 13 7.0 7.0 0.00 0.00 0.00 -999.0
20260503192301 0 34 1.0 1.0 0.00 0.00 0.00 -999.0
20260503192101 0 58 1.0 1.0 0.00 0.00 0.00 -999.0
20260503191901 0 46 7.0 7.0 0.00 0.00 0.00 -999.0
20260503191800 0 24 4.0 4.0 0.00 0.00 0.00 -999.0
20260503191701 0 25 3.0 3.0 0.00 0.00 0.00 -999.0
20260503191601 0 24 4.0 4.0 0.00 0.00 0.00 -999.0
20260503191501 0 9 3.0 3.0 0.00 0.00 0.00 -999.0
20260503191401 0 26 3.0 3.0 0.00 0.00 0.00 -999.0
20260503191301 0 18 6.0 6.0 0.00 0.00 0.00 -999.0
20260503191200 0 19 4.0 4.0 0.00 0.00 0.00 -999.0
20260503191001 0 342 4.0 4.0 0.00 0.00 0.00 -999.0
20260503190900 0 10 7.0 7.0 0.00 0.00 0.00 -999.0
20260503190601 0 23 7.0 7.0 0.00 0.00 0.00 -999.0
20260503190500 0 23 7.0 7.0 0.00 0.00 0.00 -999.0
20260503190301 0 356 10.0 10.0 0.00 0.00 0.00 -999.0
20260503190201 0 11 12.0 12.0 0.00 0.00 0.00 -999.0
20260503190001 0 9 14.0 14.0 0.00 0.00 0.00 -999.0
20260503185901 0 12 8.0 8.0 0.00 0.00 0.00 -999.0
20260503185801 0 333 5.0 5.0 0.00 0.00 0.00 -999.0
20260503185701 0 1 5.0 5.0 0.00 0.00 0.00 -999.0
20260503185601 0 321 4.0 4.0 0.00 0.00 0.00 -999.0
20260503184801 0 72 1.0 1.0 0.00 0.00 0.00 -999.0
20260503184701 0 68 2.0 2.0 0.00 0.00 0.00 -999.0
20260503184601 0 76 1.0 1.0 0.00 0.00 0.00 -999.0
20260503184501 0 62 3.0 3.0 0.00 0.00 0.00 -999.0
20260503184301 0 16 1.0 1.0 0.00 0.00 0.00 -999.0
20260503184200 0 16 5.0 5.0 0.00 0.00 0.00 -999.0
20260503184100 0 15 4.0 4.0 0.00 0.00 0.00 -999.0
20260503183801 0 8 4.0 4.0 0.00 0.00 0.00 -999.0
20260503183701 0 18 7.0 7.0 0.00 0.00 0.00 -999.0
20260503183601 0 30 3.0 3.0 0.00 0.00 0.00 -999.0
20260503183501 0 15 6.0 6.0 0.00 0.00 0.00 -999.0
20260503183401 0 24 7.0 7.0 0.00 0.00 0.00 -999.0
20260503183300 0 351 5.0 5.0 0.00 0.00 0.00 -999.0
20260503183201 0 352 9.0 9.0 0.00 0.00 0.00 -999.0
20260503183100 0 15 7.0 7.0 0.00 0.00 0.00 -999.0
20260503183001 0 20 10.0 10.0 0.00 0.00 0.00 -999.0
20260503182901 0 354 5.0 5.0 0.00 0.00 0.00 -999.0
20260503182601 0 323 0.0 0.0 0.00 0.00 0.00 -999.0
20260503182500 0 331 5.0 5.0 0.00 0.00 0.00 -999.0
20260503182400 0 319 5.0 5.0 0.00 0.00 0.00 -999.0
20260503182300 0 314 10.0 10.0 0.00 0.00 0.00 -999.0
20260503182201 0 321 9.0 9.0 0.00 0.00 0.00 -999.0
20260503182101 0 76 0.0 0.0 0.00 0.00 0.00 -999.0
20260503182001 0 77 0.0 0.0 0.00 0.00 0.00 -999.0
20260503181903 0 358 2.0 2.0 0.00 0.00 0.00 -999.0
20260503181801 0 39 3.0 3.0 0.00 0.00 0.00 -999.0
20260503181701 0 46 1.0 1.0 0.00 0.00 0.00 -999.0
20260503181501 0 1 4.0 4.0 0.00 0.00 0.00 -999.0
20260503181401 0 25 2.0 2.0 0.00 0.00 0.00 -999.0
20260503181301 0 334 2.0 2.0 0.00 0.00 0.00 -999.0
20260503181200 0 345 1.0 1.0 0.00 0.00 0.00 -999.0
20260503181101 0 34 2.0 2.0 0.00 0.00 0.00 -999.0
20260503181000 0 18 6.0 6.0 0.00 0.00 0.00 -999.0
20260503180900 0 20 8.0 8.0 0.00 0.00 0.00 -999.0
20260503180701 0 13 2.0 2.0 0.00 0.00 0.00 -999.0
20260503180600 0 15 6.0 6.0 0.00 0.00 0.00 -999.0
20260503180501 0 341 4.0 4.0 0.00 0.00 0.00 -999.0
20260503180401 0 80 1.0 1.0 0.00 0.00 0.00 -999.0
20260503180300 0 70 3.0 3.0 0.00 0.00 0.00 -999.0
20260503180001 0 52 6.0 6.0 0.00 0.00 0.00 -999.0
20260503175900 0 49 2.0 2.0 0.00 0.00 0.00 -999.0
20260503175701 0 41 2.0 2.0 0.00 0.00 0.00 -999.0
20260503175600 0 21 6.0 6.0 0.00 0.00 0.00 -999.0
20260503175400 0 15 8.0 8.0 0.00 0.00 0.00 -999.0
20260503175300 0 21 11.0 11.0 0.00 0.00 0.00 -999.0
20260503175200 0 20 13.0 13.0 0.00 0.00 0.00 -999.0
20260503175101 0 19 8.0 8.0 0.00 0.00 0.00 -999.0
20260503175001 0 11 8.0 8.0 0.00 0.00 0.00 -999.0
20260503174902 0 1 6.0 6.0 0.00 0.00 0.00 -999.0
20260503174601 0 39 5.0 5.0 0.00 0.00 0.00 -999.0
20260503174501 0 51 6.0 6.0 0.00 0.00 0.00 -999.0
20260503174401 0 23 13.0 13.0 0.00 0.00 0.00 -999.0
20260503174201 0 27 12.0 12.0 0.00 0.00 0.00 -999.0
20260503174100 0 26 10.0 10.0 0.00 0.00 0.00 -999.0
20260503174001 0 8 11.0 11.0 0.00 0.00 0.00 -999.0
20260503173901 0 26 10.0 10.0 0.00 0.00 0.00 -999.0
20260503173601 0 10 5.0 5.0 0.00 0.00 0.00 -999.0
20260503173501 0 18 5.0 5.0 0.00 0.00 0.00 -999.0
20260503173301 0 22 8.0 8.0 0.00 0.00 0.00 -999.0
20260503173201 0 333 8.0 8.0 0.00 0.00 0.00 -999.0
20260503173101 0 348 8.0 8.0 0.00 0.00 0.00 -999.0
20260503173000 0 13 9.0 9.0 0.00 0.00 0.00 -999.0
20260503172800 0 13 11.0 11.0 0.00 0.00 0.00 -999.0
20260503172700 0 11 5.0 5.0 0.00 0.00 0.00 -999.0
20260503172501 0 6 7.0 7.0 0.00 0.00 0.00 -999.0
20260503172200 0 13 13.0 13.0 0.00 0.00 0.00 -999.0
20260503172100 0 359 13.0 13.0 0.00 0.00 0.00 -999.0
20260503171900 0 335 12.0 12.0 0.00 0.00 0.00 -999.0
20260503171800 0 356 15.0 15.0 0.00 0.00 0.00 -999.0
20260503171700 0 4 16.0 16.0 0.00 0.00 0.00 -999.0
20260503171600 0 20 16.0 16.0 0.00 0.00 0.00 -999.0
20260503171501 0 14 15.0 15.0 0.00 0.00 0.00 -999.0
20260503171400 0 14 11.0 11.0 0.00 0.00 0.00 -999.0
20260503171300 0 30 8.0 8.0 0.00 0.00 0.00 -999.0
20260503171200 0 25 9.0 9.0 0.00 0.00 0.00 -999.0
20260503171100 0 19 7.0 7.0 0.00 0.00 0.00 -999.0
20260503171000 0 17 6.0 6.0 0.00 0.00 0.00 -999.0
20260503170901 0 4 6.0 6.0 0.00 0.00 0.00 -999.0
20260503170800 0 14 6.0 6.0 0.00 0.00 0.00 -999.0
20260503170700 0 6 11.0 11.0 0.00 0.00 0.00 -999.0
20260503170600 0 352 8.0 8.0 0.00 0.00 0.00 -999.0
20260503170501 0 346 11.0 11.0 0.00 0.00 0.00 -999.0
20260503170400 0 28 13.0 13.0 0.00 0.00 0.00 -999.0
20260503170300 0 338 13.0 13.0 0.00 0.00 0.00 -999.0
20260503170201 0 5 12.0 12.0 0.00 0.00 0.00 -999.0
20260503151001 0 349 14.0 14.0 0.00 0.00 0.00 -999.0
20260503150901 0 1 17.0 17.0 0.00 0.00 0.00 -999.0
20260503150800 0 3 12.0 12.0 0.00 0.00 0.00 -999.0
20260503150601 0 6 10.0 10.0 0.00 0.00 0.00 -999.0
20260503150501 0 340 8.0 8.0 0.00 0.00 0.00 -999.0
20260503150401 0 8 11.0 11.0 0.00 0.00 0.00 -999.0
20260503150301 0 1 11.0 11.0 0.00 0.00 0.00 -999.0
20260503150201 0 347 14.0 14.0 0.00 0.00 0.00 -999.0
20260503140200 0 13 9.0 9.0 0.00 0.00 0.00 -999.0